Weather History for Andrews, NC

Change the Weather History Date:

Monday, January 6, 2014

  Actual Average (KTYS) Record (KTYS)
Temperature  
Mean Temperature 26 °F 38 °F  
Max Temperature 42 °F 47 °F 70 °F (1907)
Min Temperature 4 °F 29 °F -16 °F (1884)
Degree Days  
Heating Degree Days 39 27  
Month to date heating degree days 162  
Since 1 July heating degree days 1595  
Cooling Degree Days 0 0  
Month to date cooling degree days 0  
Year to date cooling degree days 0  
Moisture  
Dew Point 11 °F    
Average Humidity 67    
Maximum Humidity 97    
Minimum Humidity 52    
Precipitation  
Precipitation 0.10 in 0.14 in 3.13 in (2009)
Month to date precipitation 0.80  
Year to date precipitation 0.80  
Snow  
Snow 0.00 in 0.10 in - ()
Month to date snowfall 0.4  
Since 1 July snowfall 1.2  
Snow Depth -    
Sea Level Pressure  
Sea Level Pressure 30.06 in    
Wind  
Wind Speed 10 mph (West)    
Max Wind Speed 23 mph    
Max Gust Speed 25 mph    
Visibility 10 miles    
Events Rain , Snow    
T = Trace of Precipitation, MM = Missing Value Source: NWS Daily Summary

Daily Weather History Graph

Daily Weather History Graph

Search for Another Location

Airport:

Trip Planner

Search our weather history database for the weather conditions in past years. The results will help you decide how hot, cold, wet, or windy it might be!

Date:

Astronomy

Jan. 06, 2014 Rise Set
Actual Time 7:44 AM EST 5:38 PM EST
Civil Twilight 7:16 AM EST 6:06 PM EST
Nautical Twilight 6:45 AM EST 6:37 PM EST
Astronomical Twilight 6:14 AM EST 7:08 PM EST
Moon 11:13 AM EST (1/6) 11:55 PM EST (1/6)
Length of Visible Light 10h 49m
Length of Day
9h 53m
Waxing Crescent, 34% of the Moon is Illuminated
Jan 6
Waxing Crescent
Jan 7
First Quarter
Jan 15
Full
Jan 24
Last Quarter
Jan 30
New

Hourly Weather History & Observations

Time (EST) Temp. Windchill Dew Point Humidity Pressure Visibility Wind Dir Wind Speed Gust Speed Precip Events Conditions
12:15 AM 48.4 °F - 47.7 °F 97% 29.70 in 4.0 mi WSW 8.1 mph - 0.05 in Rain Heavy Rain
12:35 AM 45.9 °F 39.4 °F 42.4 °F 88% 29.73 in 7.0 mi SW 15.0 mph 23.0 mph 0.07 in Rain Light Rain
12:55 AM 43.0 °F 37.7 °F 39.2 °F 86% 29.76 in 5.0 mi SW 9.2 mph 21.9 mph 0.08 in Rain Light Rain
1:15 AM 41.4 °F 34.3 °F 37.8 °F 87% 29.79 in 10.0 mi SSW 12.7 mph - 0.01 in Rain Light Rain
1:35 AM 40.1 °F 34.1 °F 37.2 °F 89% 29.77 in 10.0 mi SSW 9.2 mph 17.3 mph 0.01 in Rain Light Rain
1:55 AM 38.8 °F 32.1 °F 36.0 °F 89% 29.80 in 10.0 mi SW 10.4 mph - 0.02 in Rain Rain
2:15 AM 37.4 °F 30.8 °F 34.7 °F 90% 29.80 in 10.0 mi SW 9.2 mph - N/A Rain Light Rain
2:35 AM 36.5 °F 28.7 °F 34.5 °F 93% 29.83 in 10.0 mi West 11.5 mph - N/A   Light Drizzle
2:55 AM 35.6 °F 26.6 °F 30.9 °F 83% 29.83 in 10.0 mi West 13.8 mph - N/A   Overcast
3:35 AM 32.2 °F 25.8 °F 28.4 °F 86% 29.86 in 10.0 mi SW 6.9 mph - N/A   Overcast
3:55 AM 32.0 °F 27.5 °F 27.0 °F 82% 29.87 in 10.0 mi SW 4.6 mph - N/A   Overcast
4:15 AM 31.1 °F 24.5 °F 26.4 °F 83% 29.87 in 10.0 mi West 6.9 mph - N/A   Overcast
4:35 AM 30.9 °F 22.2 °F 23.2 °F 73% 29.88 in 10.0 mi NNE 10.4 mph 16.1 mph N/A   Overcast
4:55 AM 29.7 °F - 22.1 °F 73% 29.89 in 10.0 mi Calm Calm - N/A   Overcast
5:15 AM 29.1 °F 24.1 °F 21.6 °F 73% 29.89 in 10.0 mi WNW 4.6 mph - N/A   Overcast
5:35 AM 28.2 °F 18.3 °F 20.3 °F 72% 29.90 in 10.0 mi North 11.5 mph 16.1 mph N/A   Overcast
5:55 AM 27.5 °F 19.3 °F 19.8 °F 73% 29.91 in 10.0 mi North 8.1 mph - N/A   Overcast
6:15 AM 26.6 °F 15.7 °F 18.5 °F 71% 29.93 in 10.0 mi North 12.7 mph 19.6 mph N/A   Overcast
6:35 AM 25.2 °F 13.9 °F 16.9 °F 71% 29.94 in 10.0 mi NNE 12.7 mph 19.6 mph N/A   Overcast
6:55 AM 24.8 °F 16.9 °F 16.0 °F 69% 29.96 in 10.0 mi North 6.9 mph - N/A   Overcast
7:15 AM 24.4 °F 16.5 °F 14.7 °F 67% 29.97 in 10.0 mi NNE 6.9 mph - N/A Snow Light Snow
7:35 AM 23.4 °F 16.2 °F 13.8 °F 67% 29.99 in 10.0 mi NNW 5.8 mph - N/A   Overcast
7:55 AM 22.8 °F 15.5 °F 13.6 °F 68% 30.00 in 10.0 mi WNW 5.8 mph - N/A   Overcast
8:15 AM 22.1 °F - 13.3 °F 69% 30.00 in 10.0 mi Calm Calm - N/A   Overcast
8:35 AM 21.6 °F 13.0 °F 12.7 °F 69% 30.01 in 10.0 mi NNE 6.9 mph - N/A Snow Light Snow
8:55 AM 21.4 °F 11.9 °F 12.9 °F 70% 30.02 in 10.0 mi NNE 8.1 mph 16.1 mph N/A Snow Light Snow
9:15 AM 21.2 °F 10.9 °F 12.7 °F 70% 30.04 in 5.0 mi NNW 9.2 mph 16.1 mph N/A Snow Light Snow
9:35 AM 20.8 °F 12.1 °F 10.9 °F 66% 30.05 in 10.0 mi NNE 6.9 mph 17.3 mph N/A   Mostly Cloudy
9:55 AM 21.2 °F 10.1 °F 10.9 °F 65% 30.06 in 10.0 mi NNE 10.4 mph 17.3 mph N/A   Overcast
10:15 AM 22.5 °F 11.7 °F 11.7 °F 63% 30.05 in 10.0 mi North 10.4 mph 17.3 mph N/A   Overcast
10:35 AM 23.0 °F 13.1 °F 13.8 °F 68% 30.06 in 10.0 mi WNW 9.2 mph - N/A   Overcast
10:55 AM 22.3 °F 16.1 °F 14.5 °F 72% 30.06 in 7.0 mi West 4.6 mph - N/A Snow Light Snow
11:15 AM 22.3 °F 17.6 °F 14.7 °F 73% 30.06 in 3.0 mi WSW 3.5 mph - N/A Snow Light Snow
11:35 AM 23.0 °F 17.0 °F 12.7 °F 65% 30.05 in 7.0 mi SSW 4.6 mph - N/A   Overcast
11:55 AM 23.0 °F 11.7 °F 14.0 °F 68% 30.05 in 7.0 mi West 11.5 mph 21.9 mph N/A Snow Light Snow
12:15 PM 23.7 °F 10.5 °F 13.3 °F 64% 30.04 in 10.0 mi West 16.1 mph 21.9 mph N/A   Overcast
12:35 PM 23.7 °F 11.0 °F 12.2 °F 61% 30.03 in 10.0 mi WSW 15.0 mph 20.7 mph N/A   Scattered Clouds
12:55 PM 21.9 °F 7.3 °F 9.1 °F 58% 30.03 in 10.0 mi SW 18.4 mph 25.3 mph N/A   Clear
1:15 PM 21.0 °F 6.2 °F 9.0 °F 60% 30.03 in 10.0 mi WSW 18.4 mph 23.0 mph N/A   Clear
1:35 PM 20.3 °F 4.4 °F 8.4 °F 60% 30.06 in 10.0 mi WSW 20.7 mph 25.3 mph N/A   Clear
1:55 PM 18.9 °F 2.5 °F 7.0 °F 60% 30.07 in 10.0 mi WSW 20.7 mph - N/A   Clear
2:15 PM 17.6 °F 0.1 °F 5.5 °F 59% 30.10 in 10.0 mi West 23.0 mph - N/A   Scattered Clouds
2:35 PM 15.8 °F -0.6 °F 2.3 °F 55% 30.11 in 10.0 mi WSW 18.4 mph 25.3 mph N/A   Mostly Cloudy
2:55 PM 15.4 °F 0.4 °F 1.6 °F 54% 30.12 in 10.0 mi WSW 15.0 mph 20.7 mph N/A   Scattered Clouds
3:15 PM 14.5 °F -2.7 °F 0.5 °F 54% 30.13 in 10.0 mi WSW 19.6 mph 25.3 mph N/A   Clear
3:35 PM 13.3 °F -3.9 °F -0.8 °F 54% 30.13 in 10.0 mi WSW 18.4 mph 21.9 mph N/A   Clear
3:55 PM 13.3 °F -2.4 °F 0.3 °F 56% 30.14 in 10.0 mi WSW 15.0 mph - N/A   Scattered Clouds
4:15 PM 12.4 °F -2.9 °F -2.0 °F 53% 30.14 in 10.0 mi WSW 13.8 mph 24.2 mph N/A   Clear
4:35 PM 13.1 °F 0.1 °F -1.7 °F 52% 30.15 in 10.0 mi West 10.4 mph 18.4 mph N/A   Clear
4:55 PM 12.4 °F -0.8 °F -1.3 °F 54% 30.16 in 10.0 mi WSW 10.4 mph - N/A   Clear
5:15 PM 11.3 °F -2.2 °F -0.6 °F 59% 30.17 in 10.0 mi West 10.4 mph 18.4 mph N/A   Clear
5:35 PM 10.4 °F -3.3 °F -2.0 °F 57% 30.18 in 10.0 mi West 10.4 mph 16.1 mph N/A   Clear
5:55 PM 9.7 °F -5.0 °F -1.8 °F 60% 30.20 in 10.0 mi West 11.5 mph 17.3 mph N/A   Clear
6:15 PM 9.0 °F -5.1 °F -1.5 °F 63% 30.21 in 10.0 mi West 10.4 mph - N/A   Clear
6:35 PM 8.6 °F -5.5 °F -2.7 °F 60% 30.22 in 10.0 mi West 10.4 mph 18.4 mph N/A   Clear
6:55 PM 8.2 °F -6.0 °F -4.5 °F 56% 30.24 in 10.0 mi West 10.4 mph - N/A   Clear
7:15 PM 7.7 °F -2.4 °F -2.7 °F 62% 30.24 in 10.0 mi WSW 5.8 mph 9.2 mph N/A   Scattered Clouds
7:35 PM 7.5 °F -2.6 °F -1.7 °F 66% 30.26 in 10.0 mi West 5.8 mph - N/A   Clear
7:55 PM 7.3 °F -4.1 °F -2.0 °F 66% 30.27 in 10.0 mi WNW 6.9 mph - N/A   Clear
8:15 PM 7.0 °F -8.3 °F -4.5 °F 59% 30.27 in 10.0 mi West 11.5 mph - N/A   Clear
8:35 PM 6.4 °F -9.0 °F -5.1 °F 59% 30.29 in 10.0 mi West 11.5 mph - N/A   Clear
8:55 PM 5.9 °F -4.5 °F -5.8 °F 59% 30.28 in 10.0 mi WSW 5.8 mph - N/A   Clear
9:15 PM 5.7 °F -3.2 °F -5.3 °F 61% 30.28 in 10.0 mi WSW 4.6 mph - N/A   Scattered Clouds
9:35 PM 5.7 °F -3.2 °F -5.1 °F 61% 30.29 in 10.0 mi WSW 4.6 mph - N/A   Clear
9:55 PM 5.0 °F -5.6 °F -5.6 °F 62% 30.29 in 10.0 mi SSW 5.8 mph - N/A   Clear
10:15 PM 5.0 °F -6.9 °F -5.8 °F 61% 30.29 in 10.0 mi WSW 6.9 mph - N/A   Clear
10:35 PM 4.8 °F -5.8 °F -5.8 °F 62% 30.29 in 10.0 mi WSW 5.8 mph - N/A   Clear
10:55 PM 5.0 °F -5.6 °F -4.9 °F 64% 30.30 in 10.0 mi West 5.8 mph - N/A   Clear
11:15 PM 4.8 °F - -5.1 °F 64% 30.31 in 10.0 mi Calm Calm - N/A   Clear
11:35 PM 4.8 °F -7.1 °F -5.1 °F 64% 30.31 in 10.0 mi West 6.9 mph - N/A   Clear
11:55 PM 4.6 °F -4.5 °F -4.9 °F 65% 30.30 in 10.0 mi WNW 4.6 mph - N/A   Clear